Weather History for Mercury, NV

Change the Weather History Date:

Sunday, September 15, 2013

  Actual Average Record
Temperature  
Mean Temperature 82 °F -  
Max Temperature 97 °F 88 °F 100 °F (2000)
Min Temperature 68 °F 60 °F 52 °F (2005)
Cooling Degree Days 18    
Growing Degree Days 32 (Base 50)    
Moisture  
Dew Point 43 °F    
Average Humidity 26    
Maximum Humidity 51    
Minimum Humidity 6    
Precipitation  
Precipitation 0.00 in - - ()
Sea Level Pressure  
Sea Level Pressure 29.72 in    
Wind  
Wind Speed 7 mph (ESE)    
Max Wind Speed 17 mph    
Max Gust Speed 24 mph    
Visibility 10 miles    
Events      
Averages and records for this station are not official NWS values.
T = Trace of Precipitation, MM = Missing Value Source: NWS Daily Summary

Daily Weather History Graph

Daily Weather History Graph

Search for Another Location

Airport:

Trip Planner

Search our weather history database for the weather conditions in past years. The results will help you decide how hot, cold, wet, or windy it might be!

Date:

Astronomy

Sep. 15, 2013 Rise Set
Actual Time 6:26 AM PDT 6:51 PM PDT
Civil Twilight 6:00 AM PDT 7:16 PM PDT
Nautical Twilight 5:30 AM PDT 7:47 PM PDT
Astronomical Twilight 4:59 AM PDT 8:18 PM PDT
Moon 4:17 PM PDT (9/15) 2:14 AM PDT (9/15)
Length of Visible Light 13h 16m
Length of Day
12h 24m
Waxing Gibbous, 83% of the Moon is Illuminated
Sep 15
Waxing Gibbous
Sep 19
Full
Sep 26
Last Quarter
Oct 4
New
Oct 11
First Quarter

Hourly Weather History & Observations

Time (PDT) Temp. Dew Point Humidity Pressure Visibility Wind Dir Wind Speed Gust Speed Precip Events Conditions
12:52 AM 73.0 °F 48.0 °F 41% 29.68 in 10.0 mi ENE 4.6 mph - N/A   Clear
1:52 AM 77.0 °F 46.9 °F 34% 29.68 in 10.0 mi East 6.9 mph - N/A   Clear
2:52 AM 73.9 °F 48.0 °F 40% 29.69 in 10.0 mi ENE 4.6 mph - N/A   Clear
3:52 AM 72.0 °F 48.0 °F 43% 29.70 in 10.0 mi East 4.6 mph - N/A   Clear
4:52 AM 73.9 °F 48.9 °F 41% 29.70 in 10.0 mi East 8.1 mph - N/A   Clear
5:52 AM 69.1 °F 50.0 °F 51% 29.73 in 10.0 mi East 4.6 mph - N/A   Clear
6:52 AM 69.1 °F 50.0 °F 51% 29.75 in 10.0 mi NE 4.6 mph - N/A   Clear
7:52 AM 75.9 °F 50.0 °F 40% 29.76 in 10.0 mi East 4.6 mph - N/A   Clear
8:52 AM 79.0 °F 50.0 °F 36% 29.78 in 10.0 mi East 4.6 mph - N/A   Clear
9:52 AM 84.0 °F 48.9 °F 29% 29.77 in 10.0 mi Calm Calm - N/A   Clear
10:52 AM 88.0 °F 48.0 °F 25% 29.76 in 10.0 mi ESE 10.4 mph - N/A   Clear
11:52 AM 90.0 °F 46.0 °F 22% 29.76 in 10.0 mi Variable 3.5 mph - N/A   Clear
12:52 PM 95.0 °F 37.9 °F 14% 29.73 in 10.0 mi WSW 11.5 mph - N/A   Clear
1:52 PM 96.1 °F 39.0 °F 14% 29.70 in 10.0 mi SSW 17.3 mph 24.2 mph N/A   Partly Cloudy
2:52 PM 96.1 °F 37.0 °F 13% 29.69 in 10.0 mi SSW 15.0 mph 23.0 mph N/A   Partly Cloudy
3:52 PM 95.0 °F 35.1 °F 12% 29.68 in 10.0 mi Variable 5.8 mph 20.7 mph N/A   Clear
4:52 PM 95.0 °F 35.1 °F 12% 29.68 in 10.0 mi South 9.2 mph - N/A   Clear
5:52 PM 93.9 °F 35.1 °F 13% 29.68 in 10.0 mi SSW 16.1 mph - N/A   Clear
6:52 PM 90.0 °F 36.0 °F 15% 29.70 in 10.0 mi South 10.4 mph - N/A   Clear
7:52 PM 86.0 °F 36.0 °F 17% 29.71 in 10.0 mi South 5.8 mph - N/A   Clear
8:52 PM 81.0 °F 37.9 °F 21% 29.73 in 10.0 mi ESE 5.8 mph - N/A   Clear
9:52 PM 82.0 °F 37.9 °F 21% 29.73 in 10.0 mi ESE 11.5 mph - N/A   Clear
10:52 PM 80.1 °F 39.0 °F 23% 29.73 in 10.0 mi ESE 9.2 mph - N/A   Clear
11:52 PM 79.0 °F 39.0 °F 24% 29.73 in 10.0 mi ESE 10.4 mph - N/A   Clear